カタログに戻る

STARLINK-37509

運用中通信VLEO
NORAD 69444·PAYLOAD·🇺🇸 United States

打ち上げ Jun 8, 2026 から Cape Canaveral Space Force Station

Loading…

次のパス (今後24時間)

TLE

最新Source: CelesTrak SupGP

元期: Sep 15, 2026, 02:47 UTC

1 69444C 26127B   26258.11645833 -.00087155  00000+0 -25750-2 0  2585
2 69444  53.1573 190.9015 0001282  82.4561 345.2060 15.34433667    10

AllMySatでSTARLINK-37509をリアルタイム追跡

Download on the App Store